OZ1IEP-5 Weather Reports


time (UTC)temp
C
wind
direction
speed
KPH
gust
KPH
rain 1hr
cm
rain 24hr
cm
rain mn
cm
humidity
%
barometer
mb
20260902150009 16 202 0.0 14.5 0.03 0.43 0.38 91 1013.0
20260902145006 16 202 0.0 8.0 0.05 0.43 0.38 91 1013.1
20260902144006 16 231 0.0 4.8 0.05 0.43 0.38 91 1013.1
20260902143009 16 214 0.0 8.0 0.10 0.43 0.38 91 1013.1
20260902142005 16 230 1.6 22.5 0.10 0.43 0.38 90 1013.0
20260902141006 16 227 3.2 19.3 0.10 0.41 0.36 90 1013.0
20260902140009 16 226 3.2 24.1 0.10 0.41 0.36 90 1013.0
20260902135006 17 219 1.6 14.5 0.08 0.38 0.33 90 1013.0
20260902134006 17 246 0.0 11.3 0.30 0.38 0.33 89 1013.0
20260902133008 17 227 0.0 1.6 0.28 0.33 0.28 89 1013.0
20260902132006 17 220 0.0 4.8 0.28 0.33 0.28 88 1013.0
20260902131005 17 226 0.0 16.1 0.25 0.30 0.25 87 1013.0
20260902130008 17 237 0.0 16.1 0.25 0.30 0.25 85 1013.2
20260902125006 17 233 1.6 32.2 0.25 0.30 0.25 80 1013.3
20260902124005 19 245 9.7 32.2 0.05 0.08 0.05 76 1013.2
20260902123008 20 229 0.0 16.1 0.00 0.05 0.00 76 1013.0
20260902122006 20 200 0.0 19.3 0.00 0.05 0.00 76 1013.0
20260902121006 20 227 3.2 27.4 0.00 0.05 0.00 75 1013.1
20260902120008 20 225 1.6 19.3 0.00 0.05 0.00 75 1013.0
20260902115006 20 222 4.8 25.7 0.00 0.05 0.00 75 1013.0
20260902114006 20 234 3.2 27.4 0.00 0.05 0.00 74 1013.1
20260902113008 20 226 3.2 16.1 0.00 0.05 0.00 75 1013.2
20260902112006 20 219 3.2 22.5 0.00 0.05 0.00 74 1013.2
20260902111005 20 231 1.6 19.3 0.00 0.05 0.00 74 1013.3
20260902110008 20 217 3.2 14.5 0.00 0.05 0.00 73 1013.4
20260902105006 20 221 1.6 19.3 0.00 0.05 0.00 75 1013.4
20260902104006 20 209 0.0 19.3 0.00 0.05 0.00 75 1013.5
20260902103008 20 230 1.6 19.3 0.00 0.05 0.00 77 1013.5
20260902102006 20 208 0.0 19.3 0.00 0.05 0.00 79 1013.3
20260902101006 19 236 1.6 22.5 0.00 0.05 0.00 78 1013.3
20260902100008 18 228 1.6 14.5 0.00 0.05 0.00 80 1013.3
20260902095006 18 225 1.6 16.1 0.00 0.05 0.00 80 1013.4
20260902094006 18 218 1.6 19.3 0.00 0.05 0.00 80 1013.4
20260902093008 18 242 3.2 16.1 0.00 0.05 0.00 81 1013.4
20260902092007 18 229 3.2 20.9 0.00 0.05 0.00 80 1013.5
20260902091006 18 223 3.2 19.3 0.00 0.05 0.00 82 1013.4
20260902090008 18 241 0.0 19.3 0.00 0.05 0.00 84 1013.5
20260902085005 18 239 1.6 14.5 0.00 0.05 0.00 86 1013.5
20260902084006 18 209 0.0 14.5 0.00 0.05 0.00 87 1013.5
20260902083008 17 222 0.0 14.5 0.00 0.05 0.00 87 1013.5
20260902082006 17 191 0.0 19.3 0.00 0.05 0.00 89 1013.4
20260902081006 17 204 0.0 14.5 0.00 0.05 0.00 90 1013.5
20260902080008 17 198 0.0 14.5 0.00 0.05 0.00 90 1013.4
20260902075005 16 216 0.0 16.1 0.00 0.05 0.00 91 1013.3
20260902074006 16 213 0.0 11.3 0.00 0.05 0.00 92 1013.1
20260902073009 16 182 0.0 8.0 0.00 0.05 0.00 92 1013.1
20260902072005 16 179 0.0 4.8 0.00 0.05 0.00 92 1013.1
20260902071006 16 187 0.0 3.2 0.00 0.05 0.00 92 1013.1
20260902070008 16 182 0.0 4.8 0.00 0.05 0.00 93 1013.1
20260902065006 15 128 0.0 4.8 0.00 0.05 0.00 93 1013.1
20260902064005 15 164 0.0 9.7 0.00 0.05 0.00 93 1013.2
20260902063008 15 184 0.0 11.3 0.00 0.05 0.00 93 1013.1
20260902062006 15 185 0.0 4.8 0.00 0.05 0.00 93 1013.2
20260902061005 15 199 0.0 9.7 0.00 0.05 0.00 93 1013.1
20260902060008 15 213 0.0 4.8 0.00 0.05 0.00 93 1013.1
20260902055006 15 204 0.0 19.3 0.00 0.05 0.00 93 1013.1
20260902054005 15 191 0.0 20.9 0.00 0.05 0.00 93 1013.1
20260902053009 15 222 0.0 8.0 0.00 0.05 0.00 93 1013.0
20260902052006 14 221 1.6 9.7 0.00 0.05 0.00 93 1013.0
20260902051005 14 169 0.0 4.8 0.00 0.05 0.00 93 1013.0
20260902050009 14 217 0.0 3.2 0.00 0.05 0.00 93 1013.1
20260902045006 14 192 0.0 11.3 0.00 0.05 0.00 93 1013.0
20260902044006 14 207 0.0 9.7 0.00 0.05 0.00 93 1013.0
20260902043008 14 181 0.0 4.8 0.00 0.05 0.00 93 1013.1
20260902042006 13 150 0.0 3.2 0.00 0.05 0.00 92 1013.1
20260902041006 13 199 0.0 8.0 0.00 0.05 0.00 92 1013.1
20260902040010 13 162 0.0 4.8 0.00 0.05 0.00 93 1013.0
20260902035006 13 185 0.0 1.6 0.00 0.05 0.00 92 1013.1
20260902034006 13 172 0.0 1.6 0.00 0.05 0.00 92 1013.2
20260902033010 13 175 0.0 0.0 0.00 0.05 0.00 92 1013.3
20260902032006 12 191 0.0 1.6 0.00 0.05 0.00 92 1013.4
20260902031007 12 188 0.0 0.0 0.00 0.05 0.00 91 1013.5
20260902030008 12 181 0.0 3.2 0.00 0.05 0.00 91 1013.5
20260902025006 12 206 0.0 3.2 0.00 0.10 0.00 91 1013.5
20260902024006 12 210 0.0 3.2 0.00 0.10 0.00 91 1013.5
20260902023008 12 184 0.0 0.0 0.00 0.10 0.00 90 1013.4
20260902022005 13 222 0.0 1.6 0.00 0.10 0.00 90 1013.4
20260902021005 13 185 0.0 0.0 0.00 0.10 0.00 89 1013.4
20260902020008 13 206 0.0 3.2 0.00 0.10 0.00 89 1013.3
20260902015006 13 224 0.0 0.0 0.00 0.10 0.00 89 1013.3
20260902014006 13 189 0.0 0.0 0.00 0.10 0.00 89 1013.4
20260902013009 13 198 0.0 0.0 0.00 0.10 0.00 89 1013.4
20260902012006 14 230 0.0 4.8 0.00 0.10 0.00 89 1013.4
20260902011006 14 208 0.0 4.8 0.00 0.10 0.00 89 1013.4
20260902010009 14 224 0.0 4.8 0.00 0.10 0.00 89 1013.4
20260902005006 14 229 0.0 4.8 0.00 0.10 0.00 89 1013.4
20260902004006 14 227 0.0 8.0 0.00 0.10 0.00 89 1013.5
20260902003009 14 244 0.0 4.8 0.00 0.10 0.00 89 1013.5
20260902002005 14 230 0.0 4.8 0.00 0.10 0.00 89 1013.4
20260902001006 14 226 0.0 3.2 0.00 0.10 0.00 89 1013.5
20260902000008 14 226 0.0 4.8 0.00 0.10 0.00 89 1013.5
20260901235006 14 302 0.0 1.6 0.00 0.10 0.00 89 1013.6
20260901234006 14 300 0.0 9.7 0.00 0.10 0.00 89 1013.6
20260901233008 14 265 0.0 0.0 0.00 0.10 0.00 88 1013.6
20260901232006 14 253 0.0 8.0 0.00 0.10 0.00 88 1013.6
20260901231006 15 265 0.0 8.0 0.00 0.10 0.00 89 1013.6
20260901230008 15 276 0.0 3.2 0.00 0.10 0.00 89 1013.6
20260901225006 15 219 0.0 4.8 0.00 0.10 0.00 90 1013.4
20260901224006 15 222 0.0 9.7 0.05 0.10 0.00 90 1013.3
20260901223009 15 243 0.0 8.0 0.05 0.10 0.00 90 1013.2
20260901222006 15 201 0.0 11.3 0.05 0.10 0.00 90 1013.3
20260901221006 15 225 0.0 11.3 0.05 0.10 0.00 90 1013.1
20260901220008 16 214 0.0 3.2 0.05 0.10 0.00 89 1013.1
20260901215006 16 215 0.0 3.2 0.05 0.10 0.10 89 1013.2
20260901214006 16 237 0.0 1.6 0.03 0.08 0.08 89 1013.2
20260901213009 16 226 0.0 1.6 0.00 0.05 0.05 89 1013.0
20260901212006 16 219 0.0 1.6 0.00 0.05 0.05 89 1013.0
20260901211006 16 240 0.0 1.6 0.00 0.05 0.05 89 1013.0
20260901210009 16 247 0.0 0.0 0.00 0.05 0.05 89 1013.0
20260901205006 16 231 0.0 1.6 0.00 0.05 0.05 88 1013.0
20260901204006 16 213 0.0 0.0 0.00 0.05 0.05 87 1013.0
20260901203009 16 288 0.0 0.0 0.00 0.05 0.05 87 1013.0
20260901202006 16 293 0.0 1.6 0.00 0.05 0.05 87 1012.9
20260901201005 16 303 0.0 1.6 0.00 0.05 0.05 87 1012.9
20260901200009 16 304 0.0 0.0 0.00 0.05 0.05 88 1012.8
20260901195006 16 290 0.0 4.8 0.00 0.05 0.05 87 1012.6
20260901194006 16 307 0.0 0.0 0.00 0.05 0.05 88 1012.6
20260901193009 16 225 0.0 0.0 0.00 0.05 0.05 88 1012.5
20260901192006 17 243 0.0 0.0 0.00 0.05 0.05 88 1012.5
20260901191006 17 257 0.0 0.0 0.00 0.05 0.05 87 1012.5
20260901190020 17 237 0.0 3.2 0.00 0.05 0.05 87 1012.4
20260901185005 17 223 0.0 9.7 0.00 0.05 0.05 86 1012.3
20260901184005 17 243 0.0 8.0 0.00 0.05 0.05 85 1012.1
20260901183009 17 216 0.0 4.8 0.00 0.05 0.05 84 1012.0
20260901182006 17 228 0.0 14.5 0.00 0.05 0.05 83 1011.9
20260901181005 17 238 0.0 8.0 0.00 0.05 0.05 82 1011.9
20260901180008 17 221 0.0 4.8 0.00 0.05 0.05 81 1011.8
20260901175006 17 228 0.0 4.8 0.00 0.05 0.05 82 1011.8
20260901174007 18 234 0.0 3.2 0.00 0.05 0.05 82 1011.6
20260901173008 18 217 0.0 1.6 0.00 0.05 0.05 82 1011.5
20260901172006 18 226 0.0 4.8 0.00 0.05 0.05 81 1011.5
20260901171006 18 249 0.0 3.2 0.00 0.05 0.05 80 1011.5
20260901170008 18 217 0.0 4.8 0.00 0.05 0.05 79 1011.4
20260901165006 18 235 0.0 4.8 0.00 0.05 0.05 80 1011.4
20260901164005 18 224 0.0 3.2 0.00 0.05 0.05 80 1011.4
20260901163008 19 243 0.0 4.8 0.00 0.05 0.05 79 1011.4
20260901162005 19 238 0.0 4.8 0.00 0.05 0.05 80 1011.3
20260901161005 19 238 0.0 9.7 0.00 0.05 0.05 82 1011.3
20260901160008 18 227 0.0 11.3 0.00 0.05 0.05 82 1011.2
20260901155006 18 233 0.0 11.3 0.00 0.05 0.05 80 1011.1
20260901154005 18 249 0.0 11.3 0.00 0.05 0.05 78 1011.1
20260901153008 18 220 0.0 14.5 0.00 0.08 0.05 78 1011.0
20260901152006 19 190 0.0 8.0 0.00 0.18 0.05 78 1010.9
20260901151005 19 228 0.0 9.7 0.00 0.20 0.05 78 1010.9